This is the latest recevied weather packets stored in our database for station/object DC1MPP-9. If no packets are shown the sender has not sent any weather packets the latest 10 day(s).
| Time | Temp. | Humidity | Pressure | Rain* | Wind** | Luminosity | Snow |
|---|---|---|---|---|---|---|---|
| 1787583346 | 25.56° C | 44% | 960 hPa | - | - | - | - |
| 1787582864 | 25° C | 42% | 960 hPa | - | - | - | - |
| 1787582623 | 25.56° C | 43% | 960 hPa | - | - | - | - |
| 1787582382 | 25° C | 42% | 961 hPa | - | - | - | - |
| 1787582141 | 25.56° C | 43% | 961 hPa | - | - | - | - |
| 1787581899 | 25° C | 41% | 961 hPa | - | - | - | - |
| 1787581659 | 25° C | 41% | 961 hPa | - | - | - | - |
| 1787581176 | 25.56° C | 44% | 961 hPa | - | - | - | - |
| 1787580935 | 26.11° C | 41% | 961 hPa | - | - | - | - |
| 1787580694 | 26.11° C | 42% | 961 hPa | - | - | - | - |
| 1787580212 | 25.56° C | 41% | 961 hPa | - | - | - | - |
| 1787579971 | 25.56° C | 40% | 961 hPa | - | - | - | - |
| 1787579730 | 26.11° C | 39% | 961 hPa | - | - | - | - |
| 1787579248 | 25.56° C | 42% | 961 hPa | - | - | - | - |
| 1787579007 | 26.11° C | 41% | 961 hPa | - | - | - | - |
| 1787578766 | 26.11° C | 40% | 961 hPa | - | - | - | - |
| 1787578525 | 26.11° C | 40% | 961 hPa | - | - | - | - |
| 1787578284 | 26.67° C | 42% | 961 hPa | - | - | - | - |
| 1787578043 | 25.56° C | 40% | 961 hPa | - | - | - | - |
| 1787577801 | 26.11° C | 40% | 961 hPa | - | - | - | - |
| 1787577560 | 26.11° C | 44% | 961 hPa | - | - | - | - |
| 1787577319 | 25.56° C | 42% | 961 hPa | - | - | - | - |
| 1787577078 | 25° C | 41% | 961 hPa | - | - | - | - |
| 1787576837 | 25° C | 41% | 961 hPa | - | - | - | - |
| 1787576596 | 25° C | 41% | 961 hPa | - | - | - | - |
* Rain since midnight (hover to see other rain measurements)
** Current wind speed in m/s (hover to see current wind gust speed)